Location: Unspecified
(0.0000°N, 0.0000°E)
Time: 14:12:24
(UTC+00:00)

deb Midas V - Pass Details

Date: 20 April 2026
Orbit: 2771 x 3389 km, 86.6° (Epoch: 16 May)

Event Time Altitude Azimuth Distance (km) Brightness Sun altitude
Rises 03:57:40 0° 136° (SE) 6,654 ? -29.7°
Reaches altitude 10° 04:04:59 10° 112° (ESE) 5,724 ? -27.9°
Maximum altitude 04:11:41 14° 85° (E) 5,478 ? -26.2°
Drops below altitude 10° 04:18:30 10° 58° (ENE) 5,936 ? -24.6°
Sets 04:26:06 0° 36° (NE) 7,086 ? -22.7°
